GW4076 Weather Reports


time (UTC)temp
C
wind
direction
speed
KPH
gust
KPH
rain 1hr
cm
rain 24hr
cm
rain mn
cm
humidity
%
barometer
mb
20260509201042 19 0 0.0 3.2 0.00 0.00 0.00 58 1008.9
20260509200542 19 53 0.0 4.8 0.00 0.00 0.00 57 1008.8
20260509195546 20 53 0.0 9.7 0.00 0.00 0.00 56 1008.9
20260509195042 20 0 1.6 9.7 0.00 0.00 0.00 54 1008.9
20260509194552 20 341 1.6 8.0 0.00 0.00 0.00 55 1009.0
20260509194047 19 0 3.2 8.0 0.00 0.00 0.00 61 1009.0
20260509193544 19 302 1.6 6.4 0.00 0.00 0.00 58 1009.0
20260509193057 19 219 1.6 14.5 0.00 0.00 0.00 58 1009.1
20260509192544 18 5 0.0 14.5 0.00 0.00 0.00 59 1009.2
20260509192043 18 0 1.6 9.7 0.00 0.00 0.00 55 1009.2
20260509191553 18 360 1.6 9.7 0.00 0.00 0.00 57 1009.1
20260509191043 18 347 1.6 4.8 0.00 0.00 0.00 56 1009.2
20260509190541 18 0 0.0 8.0 0.00 0.00 0.00 59 1009.2
20260509190059 18 0 1.6 8.0 0.00 0.00 0.00 61 1009.3
20260509185542 18 21 0.0 6.4 0.00 0.00 0.00 58 1009.6
20260509185042 18 13 1.6 6.4 0.00 0.00 0.00 57 1009.6
20260509184553 18 17 1.6 6.4 0.00 0.00 0.00 58 1009.6
20260509184041 18 0 1.6 8.0 0.00 0.00 0.00 58 1009.5
20260509183545 18 0 1.6 8.0 0.00 0.00 0.00 62 1009.8
20260509183051 18 16 1.6 6.4 0.00 0.00 0.00 58 1009.9
20260509182544 18 0 1.6 6.4 0.00 0.00 0.00 58 1009.8
20260509182042 18 340 3.2 9.7 0.00 0.00 0.00 61 1009.6
20260509181553 17 0 1.6 11.3 0.00 0.00 0.00 62 1009.7
20260509181042 17 123 1.6 11.3 0.00 0.00 0.00 60 1009.9
20260509180545 17 38 0.0 4.8 0.00 0.00 0.00 69 1010.1
20260509180100 17 0 1.6 4.8 0.00 0.00 0.00 64 1010.1
20260509175542 16 0 0.0 8.0 0.00 0.00 0.00 64 1010.2
20260509175042 16 0 1.6 8.0 0.00 0.00 0.00 62 1010.4
20260509174553 17 0 0.0 6.4 0.00 0.00 0.00 64 1010.7
20260509174043 16 350 0.0 3.2 0.00 0.00 0.00 62 1010.6
20260509173541 16 0 0.0 4.8 0.00 0.00 0.00 63 1010.8
20260509173056 16 349 0.0 4.8 0.00 0.00 0.00 64 1010.8
20260509172544 16 0 0.0 4.8 0.00 0.00 0.00 65 1010.8
20260509172043 16 0 0.0 6.4 0.00 0.00 0.00 66 1010.8
20260509171555 16 0 0.0 6.4 0.00 0.00 0.00 67 1011.0
20260509171041 16 0 0.0 4.8 0.00 0.00 0.00 66 1011.1
20260509170546 16 0 0.0 4.8 0.00 0.00 0.00 65 1011.1
20260509170059 16 0 0.0 4.8 0.00 0.00 0.00 65 1011.2
20260509165547 16 0 0.0 8.0 0.00 0.00 0.00 65 1011.1
20260509165041 16 351 0.0 8.0 0.00 0.00 0.00 64 1011.0
20260509164551 16 334 1.6 8.0 0.00 0.00 0.00 66 1010.8
20260509164042 16 336 0.0 6.4 0.00 0.00 0.00 65 1010.7
20260509163542 16 0 0.0 6.4 0.00 0.00 0.00 65 1010.5
20260509163103 16 0 0.0 4.8 0.00 0.00 0.00 64 1010.6
20260509162542 16 11 0.0 6.4 0.00 0.00 0.00 63 1010.7
20260509162044 16 0 0.0 8.0 0.00 0.00 0.00 63 1010.7
20260509161556 16 0 0.0 8.0 0.00 0.00 0.00 63 1010.7
20260509161044 16 9 0.0 6.4 0.00 0.00 0.00 65 1010.9
20260509160547 16 5 0.0 3.2 0.00 0.00 0.00 65 1011.0
20260509160051 16 0 0.0 4.8 0.00 0.00 0.00 63 1010.8
20260509155546 16 0 1.6 6.4 0.00 0.00 0.00 63 1010.9
20260509155045 16 0 0.0 8.0 0.00 0.00 0.00 62 1011.0
20260509154606 16 13 1.6 8.0 0.00 0.00 0.00 62 1011.1
20260509154041 16 346 0.0 4.8 0.00 0.00 0.00 64 1011.0
20260509153543 15 0 0.0 4.8 0.00 0.00 0.00 63 1011.0
20260509153052 15 343 0.0 6.4 0.00 0.00 0.00 63 1011.1
20260509152542 15 343 0.0 6.4 0.00 0.00 0.00 64 1011.2
20260509152045 15 332 1.6 6.4 0.00 0.00 0.00 65 1011.2
20260509151554 15 330 0.0 1.6 0.00 0.00 0.00 64 1011.2
20260509151042 15 0 0.0 1.6 0.00 0.00 0.00 65 1011.2
20260509150542 15 330 0.0 1.6 0.00 0.00 0.00 65 1011.2
20260509150108 15 0 0.0 1.6 0.00 0.00 0.00 66 1011.4
20260509145544 15 0 0.0 3.2 0.00 0.00 0.00 67 1011.4
20260509145042 15 0 0.0 3.2 0.00 0.00 0.00 68 1011.4
20260509144556 14 330 0.0 3.2 0.00 0.00 0.00 67 1011.4
20260509144045 14 0 0.0 0.0 0.00 0.00 0.00 70 1011.4
20260509143542 14 0 0.0 0.0 0.00 0.00 0.00 71 1011.4
20260509143059 13 0 0.0 1.6 0.00 0.00 0.00 71 1011.4
20260509142544 13 0 0.0 1.6 0.00 0.00 0.00 69 1011.5
20260509142041 13 0 0.0 1.6 0.00 0.00 0.00 70 1011.4
20260509141558 14 0 0.0 1.6 0.00 0.00 0.00 73 1011.3
20260509141042 14 0 0.0 1.6 0.00 0.00 0.00 72 1011.1
20260509140544 14 0 0.0 1.6 0.00 0.00 0.00 72 1010.9
20260509140104 14 0 0.0 3.2 0.00 0.00 0.00 71 1010.7
20260509135548 14 0 0.0 3.2 0.00 0.00 0.00 69 1010.7
20260509135048 14 330 0.0 1.6 0.00 0.00 0.00 71 1010.8
20260509134553 14 0 0.0 1.6 0.00 0.00 0.00 68 1011.0
20260509134042 13 0 0.0 1.6 0.00 0.00 0.00 69 1011.0
20260509133541 13 0 0.0 1.6 0.00 0.00 0.00 71 1011.1
20260509133101 13 0 0.0 1.6 0.00 0.00 0.00 70 1011.1
20260509132543 13 0 0.0 3.2 0.00 0.00 0.00 69 1011.3
20260509132042 13 0 0.0 3.2 0.00 0.00 0.00 69 1011.2
20260509131549 13 0 0.0 1.6 0.00 0.00 0.00 71 1011.2
20260509131044 13 0 0.0 0.0 0.00 0.00 0.00 72 1011.0
20260509130544 13 0 0.0 0.0 0.00 0.00 0.00 73 1011.0
20260509130056 12 0 0.0 0.0 0.00 0.00 0.00 73 1010.9
20260509125543 12 0 0.0 1.6 0.00 0.00 0.00 75 1011.1
20260509125043 12 0 0.0 1.6 0.00 0.00 0.00 76 1011.0
20260509124555 12 0 0.0 1.6 0.00 0.00 0.00 74 1011.0
20260509124042 12 0 0.0 1.6 0.00 0.00 0.00 74 1011.0
20260509123542 12 0 0.0 1.6 0.00 0.00 0.00 72 1011.1
20260509123101 12 0 0.0 0.0 0.00 0.00 0.00 73 1011.1
20260509122541 12 0 0.0 0.0 0.00 0.00 0.00 73 1011.1
20260509122044 12 0 0.0 0.0 0.00 0.00 0.00 73 1011.1
20260509121558 12 0 0.0 0.0 0.00 0.00 0.00 73 1011.2
20260509121048 12 0 0.0 0.0 0.00 0.00 0.00 73 1011.2
20260509120544 12 0 0.0 0.0 0.00 0.00 0.00 75 1011.2
20260509120049 12 0 0.0 0.0 0.00 0.00 0.00 74 1011.2
20260509115541 12 0 0.0 0.0 0.00 0.00 0.00 69 1011.0
20260509115042 12 0 0.0 1.6 0.00 0.00 0.00 72 1010.8
20260509114600 12 0 0.0 1.6 0.00 0.00 0.00 72 1010.7
20260509114046 12 0 0.0 1.6 0.00 0.00 0.00 71 1010.7
20260509113543 12 0 0.0 1.6 0.00 0.00 0.00 72 1010.8
20260509113048 12 0 0.0 1.6 0.00 0.00 0.00 71 1010.8
20260509112545 12 0 0.0 1.6 0.00 0.00 0.00 74 1010.7
20260509112046 12 0 0.0 1.6 0.00 0.00 0.00 74 1010.8
20260509111555 12 0 0.0 1.6 0.00 0.00 0.00 72 1010.8
20260509111047 12 0 0.0 3.2 0.00 0.00 0.00 71 1011.0
20260509110544 12 0 0.0 3.2 0.00 0.00 0.00 70 1011.0
20260509110053 11 351 0.0 1.6 0.00 0.00 0.00 68 1010.7
20260509105542 11 0 0.0 0.0 0.00 0.00 0.00 71 1010.7
20260509105045 11 0 0.0 0.0 0.00 0.00 0.00 70 1010.7
20260509104552 11 0 0.0 0.0 0.00 0.00 0.00 69 1010.7
20260509104044 11 0 0.0 1.6 0.00 0.00 0.00 71 1010.5
20260509103545 11 0 0.0 1.6 0.00 0.00 0.00 68 1010.4
20260509103101 11 0 0.0 0.0 0.00 0.00 0.00 69 1010.5
20260509102546 11 0 0.0 0.0 0.00 0.00 0.00 70 1010.5
20260509102045 11 0 0.0 0.0 0.00 0.00 0.00 70 1010.6
20260509101554 11 0 0.0 0.0 0.00 0.00 0.00 71 1010.6
20260509101044 11 0 0.0 0.0 0.00 0.00 0.00 69 1010.4
20260509100544 11 0 0.0 0.0 0.00 0.00 0.00 70 1010.3
20260509100053 11 0 0.0 0.0 0.00 0.00 0.00 69 1010.4
20260509095542 11 0 0.0 0.0 0.00 0.00 0.00 70 1010.6
20260509095046 11 0 0.0 0.0 0.00 0.00 0.00 70 1010.5
20260509094553 11 0 0.0 0.0 0.00 0.00 0.00 70 1010.4
20260509094044 11 0 0.0 0.0 0.00 0.00 0.00 70 1010.6
20260509093544 11 0 0.0 3.2 0.00 0.00 0.00 68 1010.6
20260509093056 11 0 0.0 3.2 0.00 0.00 0.00 68 1010.5
20260509092544 11 351 0.0 0.0 0.00 0.00 0.00 69 1010.5
20260509092044 12 0 0.0 0.0 0.00 0.00 0.00 67 1010.6
20260509091556 12 0 0.0 0.0 0.00 0.00 0.00 67 1010.5
20260509091045 12 0 0.0 0.0 0.00 0.00 0.00 67 1010.6
20260509090544 12 0 0.0 0.0 0.00 0.00 0.00 68 1010.6
20260509090101 12 0 0.0 0.0 0.00 0.00 0.00 67 1010.6
20260509085548 12 0 0.0 0.0 0.00 0.00 0.00 66 1010.6
20260509085044 12 0 0.0 0.0 0.00 0.00 0.00 66 1010.8
20260509084553 12 0 0.0 0.0 0.00 0.00 0.00 66 1010.7
20260509084046 12 0 0.0 0.0 0.00 0.00 0.00 66 1010.7
20260509083544 12 0 0.0 0.0 0.00 0.00 0.00 66 1010.7
20260509083052 12 0 0.0 0.0 0.00 0.00 0.00 65 1010.8
20260509082544 12 0 0.0 0.0 0.00 0.00 0.00 65 1010.7
20260509082045 12 0 0.0 0.0 0.00 0.00 0.00 64 1010.7
20260509081552 12 0 0.0 0.0 0.00 0.00 0.00 63 1010.8
20260509081043 12 0 0.0 0.0 0.00 0.00 0.00 64 1010.6
20260509080544 12 0 0.0 0.0 0.00 0.00 0.00 64 1010.7
20260509080108 12 0 0.0 0.0 0.00 0.00 0.00 63 1010.7
20260509075544 12 0 0.0 0.0 0.00 0.00 0.00 64 1010.6
20260509075047 12 0 0.0 0.0 0.00 0.00 0.00 64 1010.7
20260509074558 12 0 0.0 0.0 0.00 0.00 0.00 64 1010.5
20260509074047 12 0 0.0 0.0 0.00 0.00 0.00 64 1010.7
20260509073544 12 0 0.0 0.0 0.00 0.00 0.00 64 1010.7
20260509073108 12 0 0.0 0.0 0.00 0.00 0.00 65 1010.7
20260509072542 12 0 0.0 0.0 0.00 0.00 0.00 64 1010.8
20260509072045 12 0 0.0 0.0 0.00 0.00 0.00 65 1010.8
20260509071552 12 0 0.0 0.0 0.00 0.00 0.00 64 1010.8
20260509071045 12 0 0.0 0.0 0.00 0.00 0.00 64 1010.8
20260509070545 12 0 0.0 0.0 0.00 0.00 0.00 64 1010.8
20260509070058 12 0 0.0 0.0 0.00 0.00 0.00 66 1010.8
20260509065544 12 0 0.0 0.0 0.00 0.00 0.00 64 1010.8
20260509065044 12 0 0.0 0.0 0.00 0.00 0.00 64 1010.8
20260509064552 12 0 0.0 0.0 0.00 0.00 0.00 64 1010.9
20260509064042 12 0 0.0 0.0 0.00 0.00 0.00 63 1010.9
20260509063543 12 0 0.0 0.0 0.00 0.00 0.00 63 1011.0
20260509063103 12 0 0.0 0.0 0.00 0.00 0.00 63 1011.0
20260509062541 12 0 0.0 0.0 0.00 0.00 0.00 62 1011.1
20260509062044 12 0 0.0 0.0 0.00 0.00 0.00 62 1011.2
20260509061553 12 0 0.0 0.0 0.00 0.00 0.00 62 1011.2
20260509061045 12 0 0.0 0.0 0.00 0.00 0.00 62 1011.3
20260509060545 12 0 0.0 0.0 0.00 0.00 0.00 63 1011.2
20260509060054 12 0 0.0 0.0 0.00 0.00 0.00 64 1011.2
20260509055545 12 0 0.0 0.0 0.00 0.00 0.00 61 1011.2
20260509055043 12 0 0.0 0.0 0.00 0.00 0.00 62 1011.2
20260509054553 12 0 0.0 0.0 0.00 0.00 0.00 63 1011.3
20260509054041 12 0 0.0 0.0 0.00 0.00 0.00 62 1011.3
20260509053545 12 0 0.0 0.0 0.00 0.00 0.00 62 1011.3
20260509053048 12 0 0.0 0.0 0.00 0.00 0.00 62 1011.3
20260509052544 12 0 0.0 1.6 0.00 0.00 0.00 63 1011.3
20260509052041 12 0 0.0 3.2 0.00 0.00 0.00 64 1011.2
20260509051553 12 0 0.0 3.2 0.00 0.00 0.00 64 1011.1
20260509051044 12 0 0.0 1.6 0.00 0.00 0.00 64 1011.2
20260509050544 12 0 0.0 1.6 0.00 0.00 0.00 63 1011.3
20260509050100 12 0 0.0 1.6 0.00 0.00 0.00 62 1011.4
20260509045541 12 0 0.0 0.0 0.00 0.00 0.00 62 1011.4
20260509045043 12 0 0.0 0.0 0.00 0.00 0.00 61 1011.6
20260509044549 12 0 0.0 0.0 0.00 0.00 0.00 62 1011.6
20260509044044 12 0 0.0 0.0 0.00 0.00 0.00 62 1011.6
20260509043542 12 0 0.0 0.0 0.00 0.00 0.00 62 1011.5
20260509043048 12 0 0.0 0.0 0.00 0.00 0.00 62 1011.5
20260509042543 12 0 0.0 1.6 0.00 0.00 0.00 61 1011.5
20260509042044 13 0 0.0 1.6 0.00 0.00 0.00 62 1011.6
20260509041551 13 0 0.0 1.6 0.00 0.00 0.00 62 1011.5
20260509041044 13 0 0.0 0.0 0.00 0.00 0.00 61 1011.5
20260509040546 13 0 0.0 1.6 0.00 0.00 0.00 61 1011.6
20260509040056 13 0 0.0 1.6 0.00 0.00 0.00 60 1011.5
20260509035543 13 0 0.0 1.6 0.00 0.00 0.00 60 1011.6
20260509035044 13 0 0.0 3.2 0.00 0.00 0.00 60 1011.7
20260509034559 13 0 0.0 3.2 0.00 0.00 0.00 60 1011.6
20260509034044 13 0 0.0 3.2 0.00 0.00 0.00 60 1011.6
20260509033543 13 0 0.0 3.2 0.00 0.00 0.00 60 1011.7
20260509033104 13 351 0.0 3.2 0.00 0.00 0.00 59 1011.6
20260509032543 13 351 0.0 4.8 0.00 0.00 0.00 58 1011.6
20260509032042 13 0 1.6 4.8 0.00 0.00 0.00 58 1011.5
20260509031553 13 0 0.0 4.8 0.00 0.00 0.00 58 1011.5
20260509031043 13 351 1.6 4.8 0.00 0.00 0.00 58 1011.6
20260509030545 13 351 1.6 4.8 0.00 0.00 0.00 59 1011.6
20260509030055 13 351 0.0 3.2 0.00 0.00 0.00 59 1011.7
20260509025544 13 0 0.0 4.8 0.00 0.00 0.00 59 1011.9
20260509025043 13 0 0.0 6.4 0.00 0.00 0.00 59 1011.8
20260509024601 13 0 0.0 6.4 0.00 0.00 0.00 58 1011.9
20260509024044 13 351 0.0 4.8 0.00 0.00 0.00 58 1011.9
20260509023544 13 306 0.0 4.8 0.00 0.00 0.00 59 1011.9
20260509023056 13 306 0.0 4.8 0.00 0.00 0.00 61 1011.9
20260509022543 13 0 0.0 4.8 0.00 0.00 0.00 59 1011.9
20260509022043 13 0 1.6 4.8 0.00 0.00 0.00 60 1012.0
20260509021551 13 0 0.0 4.8 0.00 0.00 0.00 59 1011.9
20260509021046 13 305 1.6 4.8 0.00 0.00 0.00 58 1011.9
20260509020543 13 305 1.6 4.8 0.00 0.00 0.00 59 1011.9
20260509020050 13 304 0.0 3.2 0.00 0.00 0.00 59 1011.9
20260509015543 13 304 0.0 4.8 0.00 0.00 0.00 58 1011.9
20260509015048 13 304 0.0 4.8 0.00 0.00 0.00 59 1011.9
20260509014550 13 0 0.0 4.8 0.00 0.00 0.00 59 1012.0
20260509014044 13 304 0.0 4.8 0.00 0.00 0.00 60 1011.9
20260509013541 13 304 0.0 3.2 0.00 0.00 0.00 58 1012.0
20260509013054 14 0 0.0 3.2 0.00 0.00 0.00 59 1011.9
20260509012542 14 0 0.0 3.2 0.00 0.00 0.00 59 1012.0
20260509012045 14 0 0.0 3.2 0.00 0.00 0.00 58 1011.9
20260509011601 14 303 0.0 3.2 0.00 0.00 0.00 57 1012.0
20260509011043 14 0 0.0 3.2 0.00 0.00 0.00 59 1011.9
20260509010545 15 0 0.0 1.6 0.00 0.00 0.00 58 1011.9
20260509010055 15 0 0.0 0.0 0.00 0.00 0.00 57 1011.9
20260509005543 15 0 0.0 1.6 0.00 0.00 0.00 58 1011.8
20260509005043 15 0 0.0 3.2 0.00 0.00 0.00 57 1011.8
20260509004558 15 0 0.0 3.2 0.00 0.00 0.00 56 1011.8
20260509004045 15 0 0.0 1.6 0.00 0.00 0.00 58 1011.9
20260509003543 15 0 0.0 1.6 0.00 0.00 0.00 57 1011.8
20260509003055 15 0 0.0 1.6 0.00 0.00 0.00 55 1011.8
20260509002549 15 303 0.0 1.6 0.00 0.00 0.00 57 1011.7
20260509002042 15 303 0.0 1.6 0.00 0.00 0.00 56 1011.8
20260509001554 15 303 0.0 1.6 0.00 0.00 0.00 54 1011.8
20260509001043 16 0 0.0 1.6 0.00 0.00 0.00 55 1011.7
20260509000545 16 0 0.0 1.6 0.00 0.00 0.00 56 1011.7
20260509000048 16 0 0.0 0.0 0.00 0.00 0.00 54 1011.7
20260508235543 16 0 0.0 0.0 0.00 0.00 0.00 51 1011.6
20260508235042 16 0 0.0 0.0 0.00 0.00 0.00 51 1011.6
20260508234552 17 0 0.0 0.0 0.00 0.00 0.00 50 1011.6
20260508234046 17 0 0.0 0.0 0.00 0.00 0.00 50 1011.4
20260508233543 17 0 0.0 0.0 0.00 0.00 0.00 47 1011.4
20260508233102 17 0 0.0 0.0 0.00 0.00 0.00 50 1011.4
20260508232543 18 0 0.0 0.0 0.00 0.00 0.00 47 1011.4
20260508232045 18 0 0.0 0.0 0.00 0.00 0.00 44 1011.3
20260508231556 18 0 0.0 0.0 0.00 0.00 0.00 44 1011.3
20260508231044 17 0 0.0 3.2 0.00 0.00 0.00 43 1011.1
20260508230544 17 0 0.0 3.2 0.00 0.00 0.00 42 1011.1
20260508230052 17 0 0.0 4.8 0.00 0.00 0.00 42 1011.1
20260508225543 17 0 0.0 8.0 0.00 0.00 0.00 42 1011.2
20260508225043 18 0 0.0 8.0 0.00 0.00 0.00 42 1011.3
20260508224609 18 0 1.6 8.0 0.00 0.00 0.00 40 1011.3
20260508224042 18 306 0.0 8.0 0.00 0.00 0.00 41 1011.3
20260508223544 18 0 0.0 8.0 0.00 0.00 0.00 41 1011.3
20260508223052 18 306 1.6 8.0 0.00 0.00 0.00 42 1011.2
20260508222545 18 297 1.6 6.4 0.00 0.00 0.00 41 1011.2
20260508222045 18 0 0.0 9.7 0.00 0.00 0.00 42 1011.1
20260508221557 18 269 0.0 11.3 0.00 0.00 0.00 43 1011.2
20260508221045 18 0 3.2 11.3 0.00 0.00 0.00 40 1011.2
20260508220546 18 208 1.6 8.0 0.00 0.00 0.00 39 1011.2
20260508220053 18 0 1.6 8.0 0.00 0.00 0.00 40 1011.3
20260508215543 18 0 0.0 9.7 0.00 0.00 0.00 39 1011.3
20260508215043 18 0 1.6 14.5 0.00 0.00 0.00 39 1011.3
20260508214554 18 329 3.2 14.5 0.00 0.00 0.00 38 1011.3
20260508214043 18 314 1.6 11.3 0.00 0.00 0.00 40 1011.3
20260508213542 18 311 0.0 14.5 0.00 0.00 0.00 40 1011.3
20260508213052 18 0 3.2 14.5 0.00 0.00 0.00 40 1011.4
20260508212543 18 195 1.6 11.3 0.00 0.00 0.00 37 1011.5
20260508212042 18 245 1.6 16.1 0.00 0.00 0.00 38 1011.4
20260508211553 18 217 1.6 16.1 0.00 0.00 0.00 37 1011.4
20260508211045 18 317 3.2 16.1 0.00 0.00 0.00 37 1011.4
20260508210544 18 265 3.2 11.3 0.00 0.00 0.00 38 1011.4
20260508210050 19 263 1.6 14.5 0.00 0.00 0.00 39 1011.2
20260508205544 19 261 3.2 16.1 0.00 0.00 0.00 36 1011.3
20260508205042 19 297 3.2 16.1 0.00 0.00 0.00 37 1011.3
20260508204554 19 293 3.2 16.1 0.00 0.00 0.00 35 1011.3
20260508204042 20 236 3.2 17.7 0.00 0.00 0.00 35 1011.3
20260508203543 20 243 6.4 17.7 0.00 0.00 0.00 33 1011.3
20260508203101 20 255 4.8 20.9 0.00 0.00 0.00 32 1011.4
20260508202543 20 297 4.8 20.9 0.00 0.00 0.00 34 1011.4
20260508202042 20 243 3.2 24.1 0.00 0.00 0.00 33 1011.5
20260508201555 20 173 6.4 24.1 0.00 0.00 0.00 34 1011.4